TimeMST,TemperatureF,Dew PointF,Humidity,Sea Level PressureIn,VisibilityMPH,Wind Direction,Wind SpeedMPH,Gust SpeedMPH,PrecipitationIn,Events,Conditions,WindDirDegrees,DateUTC
12:53 AM,28.0,8.1,43,29.89,10.0,SW,6.9,-,N/A,,Clear,220,2012-11-25 07:53:00
1:53 AM,26.1,7.0,44,29.90,10.0,SW,9.2,-,N/A,,Clear,220,2012-11-25 08:53:00
2:53 AM,25.0,7.0,46,29.91,10.0,SW,6.9,-,N/A,,Clear,230,2012-11-25 09:53:00
3:53 AM,23.0,6.1,48,29.92,10.0,SSW,6.9,-,N/A,,Clear,210,2012-11-25 10:53:00
5:53 AM,21.9,5.0,48,30.01,10.0,Calm,Calm,-,N/A,,Clear,0,2012-11-25 12:53:00
6:53 AM,23.0,6.1,48,30.03,10.0,SW,4.6,-,N/A,,Clear,230,2012-11-25 13:53:00
7:53 AM,30.0,10.0,43,30.03,10.0,WSW,3.5,-,N/A,,Clear,240,2012-11-25 14:53:00
8:53 AM,37.9,14.0,38,30.02,10.0,Calm,Calm,-,N/A,,Clear,0,2012-11-25 15:53:00
9:53 AM,46.9,18.0,32,29.96,10.0,ENE,4.6,-,N/A,,Clear,70,2012-11-25 16:53:00
10:53 AM,50.0,19.0,29,29.94,10.0,SE,5.8,-,N/A,,Clear,130,2012-11-25 17:53:00
11:53 AM,53.1,18.0,25,29.90,10.0,SE,5.8,-,N/A,,Clear,140,2012-11-25 18:53:00
12:53 PM,55.9,18.0,23,29.85,10.0,ESE,5.8,-,N/A,,Clear,110,2012-11-25 19:53:00
1:53 PM,59.0,19.0,21,29.81,10.0,SE,9.2,-,N/A,,Clear,130,2012-11-25 20:53:00
2:53 PM,60.1,19.0,20,29.80,10.0,SE,12.7,-,N/A,,Clear,130,2012-11-25 21:53:00
3:53 PM,57.0,19.9,24,29.80,10.0,SE,15.0,-,N/A,,Clear,130,2012-11-25 22:53:00
4:53 PM,46.9,19.0,33,29.82,10.0,East,5.8,-,N/A,,Clear,100,2012-11-25 23:53:00
5:53 PM,41.0,19.9,43,29.86,10.0,East,5.8,-,N/A,,Clear,100,2012-11-26 00:53:00
6:53 PM,37.9,19.9,48,29.87,10.0,East,5.8,-,N/A,,Clear,90,2012-11-26 01:53:00
7:53 PM,35.1,19.9,54,29.88,10.0,ENE,9.2,-,N/A,,Clear,70,2012-11-26 02:53:00
8:53 PM,32.0,19.9,61,29.89,10.0,ENE,6.9,-,N/A,,Clear,60,2012-11-26 03:53:00
9:53 PM,28.9,21.0,72,29.91,10.0,East,3.5,-,N/A,,Clear,80,2012-11-26 04:53:00
10:53 PM,28.9,21.9,75,29.95,10.0,NNE,9.2,-,N/A,,Clear,30,2012-11-26 05:53:00
11:53 PM,26.1,21.9,84,29.96,10.0,NE,4.6,-,N/A,,Clear,50,2012-11-26 06:53:00